| time (UTC) | temp C | wind direction | speed KPH | gust KPH | rain 1hr cm | rain 24hr cm | rain mn cm | humidity % | barometer mb |
| 20260902144904 | 17 | 251 | 1.6 | 3.2 | 0.00 | 0.00 | 0.00 | 80 | 1011.4 |
| 20260902143905 | 16 | 251 | 0.0 | 3.2 | 0.00 | 0.00 | 0.00 | 81 | 1011.4 |
| 20260902143404 | 16 | 251 | 1.6 | 3.2 | 0.00 | 0.00 | 0.00 | 82 | 1011.3 |
| 20260902142904 | 16 | 259 | 1.6 | 3.2 | 0.00 | 0.00 | 0.00 | 82 | 1011.3 |
| 20260902141905 | 15 | 306 | 0.0 | 3.2 | 0.00 | 0.00 | 0.00 | 84 | 1011.3 |
| 20260902141404 | 15 | 306 | 1.6 | 3.2 | 0.00 | 0.00 | 0.00 | 84 | 1011.3 |
| 20260902140404 | 14 | 271 | 0.0 | 3.2 | 0.00 | 0.00 | 0.00 | 85 | 1011.3 |
| 20260902135404 | 13 | 262 | 0.0 | 3.2 | 0.00 | 0.00 | 0.00 | 85 | 1011.4 |
| 20260902134904 | 13 | 148 | 0.0 | 1.6 | 0.00 | 0.00 | 0.00 | 85 | 1011.4 |
| 20260902133904 | 12 | 148 | 0.0 | 1.6 | 0.00 | 0.00 | 0.00 | 85 | 1011.2 |
| 20260902133404 | 12 | 0 | 0.0 | 1.6 | 0.00 | 0.00 | 0.00 | 86 | 1011.1 |
| 20260902132404 | 12 | 0 | 0.0 | 4.8 | 0.00 | 0.00 | 0.00 | 86 | 1010.8 |
| 20260902131904 | 12 | 0 | 3.2 | 4.8 | 0.00 | 0.00 | 0.00 | 86 | 1010.8 |
| 20260902130904 | 12 | 0 | 1.6 | 4.8 | 0.00 | 0.00 | 0.00 | 86 | 1010.6 |
| 20260902125904 | 12 | 0 | 0.0 | 4.8 | 0.00 | 0.00 | 0.00 | 86 | 1010.5 |
| 20260902124904 | 12 | 0 | 3.2 | 4.8 | 0.00 | 0.03 | 0.00 | 86 | 1010.5 |
| 20260902123404 | 12 | 0 | 0.0 | 0.0 | 0.00 | 0.03 | 0.00 | 85 | 1010.6 |
| 20260902122405 | 12 | 0 | 0.0 | 0.0 | 0.00 | 0.03 | 0.00 | 85 | 1010.6 |
| 20260902121404 | 12 | 0 | 0.0 | 0.0 | 0.00 | 0.03 | 0.00 | 85 | 1010.5 |
| 20260902120404 | 12 | 0 | 0.0 | 0.0 | 0.00 | 0.03 | 0.00 | 85 | 1010.4 |
| 20260902115405 | 13 | 0 | 0.0 | 0.0 | 0.00 | 0.03 | 0.00 | 85 | 1010.3 |
| 20260902114405 | 13 | 0 | 0.0 | 0.0 | 0.00 | 0.05 | 0.00 | 84 | 1010.2 |
| 20260902113904 | 13 | 0 | 0.0 | 0.0 | 0.00 | 0.05 | 0.00 | 84 | 1010.1 |
| 20260902104405 | 15 | 0 | 0.0 | 1.6 | 0.00 | 0.10 | 0.00 | 81 | 1009.9 |
| 20260902103904 | 15 | 0 | 0.0 | 1.6 | 0.00 | 0.10 | 0.00 | 81 | 1009.9 |
| 20260902102904 | 15 | 0 | 0.0 | 0.0 | 0.00 | 0.10 | 0.00 | 80 | 1010.1 |
| 20260902102404 | 15 | 0 | 0.0 | 0.0 | 0.00 | 0.10 | 0.00 | 79 | 1010.1 |
| 20260902100404 | 16 | 0 | 0.0 | 3.2 | 0.00 | 0.10 | 0.00 | 77 | 1010.1 |
| 20260902095404 | 16 | 215 | 1.6 | 3.2 | 0.00 | 0.10 | 0.00 | 76 | 1010.0 |
| 20260902093904 | 16 | 215 | 0.0 | 0.0 | 0.00 | 0.15 | 0.00 | 75 | 1009.8 |
| 20260902093404 | 16 | 215 | 0.0 | 0.0 | 0.00 | 0.15 | 0.00 | 76 | 1009.8 |
| 20260902092905 | 16 | 215 | 0.0 | 0.0 | 0.00 | 0.15 | 0.00 | 76 | 1009.8 |
| 20260902091905 | 16 | 215 | 0.0 | 0.0 | 0.00 | 0.15 | 0.00 | 76 | 1009.8 |
| 20260902091404 | 16 | 215 | 0.0 | 1.6 | 0.00 | 0.15 | 0.00 | 76 | 1009.9 |
| 20260902085905 | 16 | 215 | 0.0 | 3.2 | 0.00 | 0.15 | 0.00 | 76 | 1009.9 |
| 20260902084904 | 16 | 167 | 0.0 | 1.6 | 0.00 | 0.18 | 0.00 | 76 | 1009.9 |
| 20260902084405 | 16 | 167 | 0.0 | 1.6 | 0.00 | 0.36 | 0.00 | 76 | 1010.0 |
| 20260902083404 | 16 | 167 | 0.0 | 1.6 | 0.00 | 0.58 | 0.00 | 76 | 1010.0 |
| 20260902081904 | 17 | 167 | 1.6 | 4.8 | 0.00 | 0.74 | 0.00 | 76 | 1010.2 |
| 20260902080904 | 17 | 167 | 0.0 | 4.8 | 0.00 | 0.79 | 0.00 | 74 | 1010.2 |
| 20260902080404 | 17 | 167 | 0.0 | 0.0 | 0.00 | 0.79 | 0.00 | 73 | 1010.2 |
| 20260902075904 | 17 | 167 | 0.0 | 1.6 | 0.00 | 0.79 | 0.00 | 72 | 1010.3 |
| 20260902075404 | 17 | 167 | 0.0 | 4.8 | 0.00 | 0.79 | 0.00 | 72 | 1010.3 |
| 20260902074904 | 17 | 167 | 0.0 | 4.8 | 0.00 | 0.79 | 0.00 | 73 | 1010.3 |
| 20260902074404 | 17 | 171 | 1.6 | 3.2 | 0.00 | 0.79 | 0.00 | 73 | 1010.3 |
| 20260902071904 | 18 | 229 | 0.0 | 1.6 | 0.00 | 0.79 | 0.00 | 73 | 1010.1 |
| 20260902065904 | 18 | 229 | 0.0 | 0.0 | 0.00 | 0.79 | 0.00 | 71 | 1010.1 |
| 20260902065404 | 18 | 229 | 0.0 | 0.0 | 0.00 | 0.79 | 0.00 | 71 | 1010.1 |
| 20260902064404 | 18 | 229 | 0.0 | 0.0 | 0.00 | 0.79 | 0.00 | 70 | 1010.2 |
| 20260902063904 | 18 | 229 | 0.0 | 0.0 | 0.00 | 0.79 | 0.00 | 69 | 1010.2 |
| 20260902060905 | 19 | 219 | 1.6 | 4.8 | 0.00 | 0.79 | 0.00 | 67 | 1010.3 |
| 20260902055904 | 19 | 140 | 1.6 | 3.2 | 0.00 | 0.79 | 0.79 | 67 | 1010.4 |
| 20260902054404 | 19 | 140 | 0.0 | 4.8 | 0.00 | 0.79 | 0.79 | 67 | 1010.4 |
| 20260902052904 | 19 | 145 | 1.6 | 4.8 | 0.00 | 0.79 | 0.79 | 68 | 1010.5 |
| 20260902052404 | 19 | 145 | 0.0 | 1.6 | 0.00 | 0.79 | 0.79 | 68 | 1010.5 |
| 20260902051905 | 19 | 145 | 0.0 | 1.6 | 0.00 | 0.79 | 0.79 | 67 | 1010.5 |
| 20260902051404 | 19 | 145 | 0.0 | 1.6 | 0.00 | 0.79 | 0.79 | 66 | 1010.5 |
| 20260902050904 | 19 | 145 | 0.0 | 4.8 | 0.00 | 0.79 | 0.79 | 66 | 1010.6 |
| 20260902050404 | 19 | 145 | 0.0 | 4.8 | 0.00 | 0.79 | 0.79 | 65 | 1010.5 |
| 20260902044404 | 19 | 145 | 1.6 | 4.8 | 0.00 | 0.81 | 0.79 | 64 | 1010.4 |
| 20260902043904 | 19 | 145 | 3.2 | 4.8 | 0.00 | 0.81 | 0.79 | 64 | 1010.4 |
| 20260902043404 | 19 | 145 | 3.2 | 4.8 | 0.00 | 0.81 | 0.79 | 64 | 1010.5 |
| 20260902042904 | 19 | 142 | 3.2 | 4.8 | 0.00 | 0.81 | 0.79 | 64 | 1010.4 |
| 20260902041904 | 19 | 146 | 1.6 | 4.8 | 0.00 | 0.81 | 0.79 | 66 | 1010.4 |
| 20260902041404 | 19 | 146 | 3.2 | 4.8 | 0.00 | 0.81 | 0.79 | 66 | 1010.4 |
| 20260902035404 | 19 | 143 | 3.2 | 4.8 | 0.00 | 0.81 | 0.79 | 66 | 1010.1 |
| 20260902034404 | 19 | 147 | 3.2 | 4.8 | 0.00 | 0.81 | 0.79 | 68 | 1009.9 |
| 20260902033904 | 19 | 150 | 3.2 | 4.8 | 0.00 | 0.81 | 0.79 | 69 | 1009.8 |
| 20260902033404 | 19 | 145 | 3.2 | 4.8 | 0.00 | 0.81 | 0.79 | 69 | 1009.7 |
| 20260902032904 | 19 | 144 | 3.2 | 4.8 | 0.00 | 0.81 | 0.79 | 69 | 1009.6 |
| 20260902030903 | 19 | 142 | 3.2 | 8.0 | 0.00 | 0.81 | 0.79 | 71 | 1009.4 |
| 20260902030404 | 19 | 141 | 3.2 | 8.0 | 0.00 | 0.81 | 0.79 | 72 | 1009.3 |
| 20260902025904 | 19 | 150 | 3.2 | 8.0 | 0.00 | 0.81 | 0.79 | 73 | 1009.3 |
| 20260902021904 | 20 | 283 | 0.0 | 0.0 | 0.00 | 0.81 | 0.79 | 73 | 1009.0 |
| 20260902020904 | 20 | 283 | 0.0 | 0.0 | 0.00 | 0.81 | 0.79 | 69 | 1009.0 |
| 20260902015404 | 20 | 283 | 0.0 | 0.0 | 0.00 | 0.81 | 0.79 | 69 | 1008.9 |
| 20260902013904 | 21 | 283 | 0.0 | 0.0 | 0.00 | 0.81 | 0.79 | 68 | 1008.7 |
| 20260902013404 | 21 | 283 | 0.0 | 0.0 | 0.00 | 0.81 | 0.79 | 67 | 1008.6 |
| 20260902005904 | 23 | 225 | 1.6 | 3.2 | 0.00 | 0.84 | 0.79 | 57 | 1008.4 |
| 20260902004904 | 24 | 253 | 1.6 | 3.2 | 0.00 | 0.84 | 0.79 | 55 | 1008.4 |
| 20260902003904 | 24 | 251 | 0.0 | 4.8 | 0.00 | 0.84 | 0.79 | 52 | 1008.5 |
| 20260902003404 | 24 | 246 | 0.0 | 4.8 | 0.00 | 0.84 | 0.79 | 51 | 1008.5 |
| 20260902001903 | 23 | 225 | 1.6 | 4.8 | 0.00 | 0.84 | 0.79 | 57 | 1008.8 |
| 20260902001404 | 23 | 216 | 0.0 | 4.8 | 0.00 | 0.84 | 0.79 | 58 | 1008.7 |
| 20260902000904 | 23 | 190 | 0.0 | 4.8 | 0.00 | 0.84 | 0.79 | 57 | 1008.8 |
| 20260901235905 | 23 | 185 | 3.2 | 4.8 | 0.00 | 0.86 | 0.79 | 56 | 1009.0 |
| 20260901234404 | 23 | 214 | 1.6 | 4.8 | 0.00 | 0.89 | 0.79 | 56 | 1009.0 |
| 20260901233904 | 24 | 265 | 0.0 | 0.0 | 0.00 | 0.89 | 0.79 | 56 | 1009.0 |
| 20260901233404 | 24 | 265 | 0.0 | 0.0 | 0.00 | 0.89 | 0.79 | 55 | 1009.0 |
| 20260901231903 | 25 | 284 | 0.0 | 4.8 | 0.00 | 0.89 | 0.79 | 51 | 1009.0 |
| 20260901231404 | 25 | 277 | 0.0 | 3.2 | 0.00 | 0.89 | 0.79 | 51 | 1009.0 |
| 20260901230404 | 25 | 13 | 1.6 | 4.8 | 0.00 | 0.89 | 0.79 | 50 | 1009.1 |
| 20260901223904 | 26 | 319 | 1.6 | 12.9 | 0.00 | 0.89 | 0.79 | 41 | 1009.4 |
| 20260901223404 | 26 | 247 | 6.4 | 12.9 | 0.00 | 0.89 | 0.79 | 41 | 1009.3 |
| 20260901222404 | 26 | 194 | 3.2 | 8.0 | 0.00 | 0.89 | 0.79 | 41 | 1009.4 |
| 20260901221904 | 25 | 214 | 1.6 | 8.0 | 0.00 | 0.89 | 0.79 | 42 | 1009.4 |
| 20260901220904 | 25 | 207 | 0.0 | 4.8 | 0.00 | 0.89 | 0.79 | 45 | 1009.6 |
| 20260901215404 | 25 | 334 | 3.2 | 12.9 | 0.00 | 0.89 | 0.79 | 41 | 1009.7 |
| 20260901211904 | 26 | 166 | 6.4 | 12.9 | 0.00 | 0.89 | 0.79 | 44 | 1009.9 |
| 20260901211403 | 26 | 241 | 3.2 | 14.5 | 0.00 | 0.89 | 0.79 | 44 | 1009.8 |
| 20260901210904 | 26 | 220 | 3.2 | 14.5 | 0.00 | 0.89 | 0.79 | 47 | 1009.8 |
| 20260901210404 | 25 | 259 | 8.0 | 14.5 | 0.00 | 0.89 | 0.79 | 46 | 1009.9 |
| 20260901205404 | 26 | 194 | 4.8 | 19.3 | 0.00 | 0.89 | 0.79 | 46 | 1010.0 |
| 20260901204904 | 26 | 221 | 6.4 | 14.5 | 0.00 | 0.89 | 0.79 | 45 | 1010.0 |
| 20260901202904 | 25 | 190 | 3.2 | 16.1 | 0.00 | 0.89 | 0.79 | 48 | 1010.4 |
| 20260901202404 | 25 | 166 | 6.4 | 11.3 | 0.00 | 0.89 | 0.79 | 44 | 1010.3 |
| 20260901200904 | 25 | 247 | 4.8 | 11.3 | 0.00 | 0.89 | 0.79 | 43 | 1010.4 |
| 20260901200404 | 25 | 211 | 3.2 | 11.3 | 0.00 | 0.89 | 0.79 | 46 | 1010.3 |
| 20260901195904 | 25 | 204 | 4.8 | 11.3 | 0.00 | 0.89 | 0.79 | 47 | 1010.4 |
| 20260901194404 | 25 | 248 | 3.2 | 14.5 | 0.00 | 0.89 | 0.79 | 47 | 1010.3 |
| 20260901193904 | 25 | 141 | 6.4 | 14.5 | 0.00 | 0.89 | 0.79 | 44 | 1010.3 |
| 20260901192904 | 24 | 159 | 4.8 | 11.3 | 0.00 | 0.89 | 0.79 | 50 | 1010.5 |
| 20260901192404 | 23 | 191 | 1.6 | 4.8 | 0.00 | 0.89 | 0.79 | 54 | 1010.5 |
| 20260901190904 | 23 | 80 | 1.6 | 4.8 | 0.00 | 0.89 | 0.79 | 60 | 1010.6 |
| 20260901190404 | 23 | 299 | 3.2 | 4.8 | 0.00 | 0.89 | 0.79 | 59 | 1010.8 |
| 20260901184904 | 23 | 85 | 1.6 | 4.8 | 0.00 | 0.89 | 0.79 | 62 | 1010.9 |
| 20260901183404 | 22 | 292 | 1.6 | 4.8 | 0.00 | 0.89 | 0.79 | 65 | 1011.1 |
| 20260901181904 | 21 | 253 | 1.6 | 4.8 | 0.00 | 0.89 | 0.79 | 67 | 1011.2 |
| 20260901181404 | 21 | 302 | 0.0 | 4.8 | 0.00 | 0.89 | 0.79 | 67 | 1011.3 |
| 20260901180904 | 21 | 39 | 1.6 | 4.8 | 0.00 | 0.89 | 0.79 | 68 | 1011.4 |
| 20260901180404 | 21 | 221 | 0.0 | 4.8 | 0.00 | 0.89 | 0.79 | 71 | 1011.5 |
| 20260901174404 | 20 | 205 | 3.2 | 4.8 | 0.00 | 0.89 | 0.79 | 69 | 1011.7 |
| 20260901173404 | 20 | 165 | 1.6 | 4.8 | 0.00 | 0.89 | 0.79 | 71 | 1011.6 |
| 20260901171904 | 18 | 209 | 1.6 | 4.8 | 0.00 | 0.89 | 0.79 | 77 | 1011.8 |
| 20260901171403 | 18 | 218 | 1.6 | 4.8 | 0.00 | 0.89 | 0.79 | 77 | 1011.7 |
| 20260901170904 | 18 | 245 | 1.6 | 3.2 | 0.00 | 0.89 | 0.79 | 79 | 1011.6 |
| 20260901170404 | 18 | 271 | 1.6 | 4.8 | 0.00 | 0.89 | 0.79 | 81 | 1011.4 |
| 20260901165404 | 18 | 287 | 1.6 | 4.8 | 0.00 | 0.89 | 0.79 | 82 | 1011.4 |
| 20260901164404 | 17 | 123 | 1.6 | 3.2 | 0.00 | 0.89 | 0.79 | 85 | 1011.3 |
| 20260901163904 | 17 | 268 | 0.0 | 4.8 | 0.00 | 0.89 | 0.79 | 85 | 1011.2 |
| 20260901162404 | 17 | 172 | 1.6 | 4.8 | 0.00 | 0.89 | 0.79 | 86 | 1011.3 |
| 20260901161904 | 16 | 259 | 1.6 | 4.8 | 0.00 | 0.89 | 0.79 | 86 | 1011.3 |
| 20260901161404 | 16 | 30 | 1.6 | 4.8 | 0.00 | 0.89 | 0.79 | 86 | 1011.2 |
| 20260901160404 | 16 | 5 | 1.6 | 4.8 | 0.00 | 0.89 | 0.79 | 87 | 1011.2 |
| 20260901155904 | 16 | 31 | 0.0 | 4.8 | 0.00 | 0.89 | 0.79 | 87 | 1011.3 |
| 20260901154904 | 15 | 230 | 1.6 | 3.2 | 0.00 | 0.89 | 0.79 | 87 | 1011.3 |
| 20260901153904 | 15 | 0 | 0.0 | 1.6 | 0.00 | 0.89 | 0.79 | 87 | 1011.4 |
| 20260901153404 | 15 | 0 | 0.0 | 3.2 | 0.00 | 0.89 | 0.79 | 87 | 1011.4 |
| 20260901152903 | 15 | 0 | 0.0 | 3.2 | 0.00 | 0.89 | 0.79 | 87 | 1011.4 |
| 20260901152404 | 15 | 0 | 1.6 | 3.2 | 0.00 | 0.89 | 0.79 | 87 | 1011.4 |
| 20260901151404 | 15 | 0 | 0.0 | 3.2 | 0.00 | 0.89 | 0.79 | 87 | 1011.4 |
| 20260901145404 | 15 | 0 | 0.0 | 3.2 | 0.00 | 0.89 | 0.79 | 87 | 1011.1 |